This is the latest recevied weather packets stored in our database for station/object K5YNC. If no packets are shown the sender has not sent any weather packets the latest 10 day(s).
| Time | Temp. | Humidity | Pressure | Rain* | Wind** | Luminosity | Snow |
|---|---|---|---|---|---|---|---|
| 1777645495 | 13.89° C | 88% | 1019.8 hPa | 0 mm | - | 124 W/m² | - |
| 1777645190 | 13.89° C | 89% | 1019.4 hPa | 0 mm | - | 97 W/m² | - |
| 1777644886 | 13.33° C | 89% | 1019.4 hPa | 0 mm | - | 88 W/m² | - |
| 1777644584 | 13.33° C | 89% | 1019.4 hPa | 0 mm | - | 92 W/m² | - |
| 1777644280 | 13.33° C | 90% | 1019.4 hPa | 0 mm | - | 96 W/m² | - |
| 1777643976 | 13.33° C | 90% | 1019.8 hPa | 0 mm | - | 105 W/m² | - |
| 1777643674 | 13.33° C | 91% | 1019.6 hPa | 0 mm | - | 102 W/m² | - |
| 1777643371 | 13.33° C | 91% | 1019.6 hPa | 0 mm | - | 94 W/m² | - |
| 1777643067 | 12.78° C | 91% | 1019.5 hPa | 0 mm | - | 76 W/m² | - |
| 1777642764 | 12.78° C | 91% | 1019.5 hPa | 0 mm | - | 60 W/m² | - |
| 1777642461 | 12.78° C | 91% | 1019.4 hPa | 0 mm | - | 63 W/m² | - |
| 1777642157 | 12.78° C | 91% | 1019.5 hPa | 0 mm | - | 58 W/m² | - |
| 1777641855 | 12.78° C | 91% | 1019.5 hPa | 0 mm | - | 44 W/m² | - |
| 1777641554 | 12.78° C | 91% | 1019.1 hPa | 0 mm | - | 42 W/m² | - |
| 1777641249 | 12.78° C | 92% | 1019.2 hPa | 0 mm | - | 39 W/m² | - |
| 1777640946 | 12.78° C | 92% | 1019.1 hPa | 0 mm | - | 40 W/m² | - |
| 1777640643 | 12.78° C | 92% | 1019.2 hPa | 0 mm | - | 32 W/m² | - |
| 1777640339 | 12.78° C | 92% | 1019.3 hPa | 0 mm | - | 34 W/m² | - |
| 1777640036 | 12.78° C | 92% | 1019.2 hPa | 0 mm | - | 27 W/m² | - |
| 1777639733 | 12.22° C | 92% | 1019.1 hPa | 0 mm | - | 45 W/m² | - |
| 1777639431 | 12.78° C | 92% | 1019.3 hPa | 0 mm | - | 30 W/m² | - |
| 1777639131 | 12.22° C | 92% | 1019.3 hPa | 0 mm | - | 34 W/m² | - |
| 1777638828 | 12.22° C | 92% | 1019 hPa | 0 mm | - | 34 W/m² | - |
| 1777638524 | 12.22° C | 92% | 1018.9 hPa | 0 mm | - | 23 W/m² | - |
| 1777638221 | 12.22° C | 92% | 1018.9 hPa | 0 mm | - | 17 W/m² | - |
* Rain latest hour (hover to see other rain measurements)
** Current wind speed in m/s (hover to see current wind gust speed)